Location: Centerville
(32.8776°N, 96.6203°W)
Time: 10:54:00
(UTC+00:00)

Cosmos 2237 - Pass Details

Date: 27 October 2021
Orbit: 845 x 856 km, 70.8° (Epoch: 08 December)

Event Time Altitude Azimuth Distance (km) Brightness Sun altitude
Exits shadow 10:34:42 78° 232° (SW) 874 4.0 -27.0°
Drops below altitude 10° 10:40:15 10° 166° (SSE) 2,470 6.8 -25.8°
Sets 10:42:41 0° 165° (SSE) 3,401 7.5 -25.3°
